Regional Weather Roundup
Issued by NWS Albany, NY

Home | Current Version | Previous Version | Graphics & Text | Print | Product List | Glossary Off
Versions: 1 2 3 4 5 6 7 8 9 10 11 12 13 14 15 16 17 18 19 20 21 22 23 24 25 26 27 28 29 30 31 32 33 34 35 36 37 38 39 40 41 42 43 44 45 46 47 48 49 50

000
ASUS41 KALY 291312
RWRALY
NEW YORK STATE HOURLY WEATHER ROUNDUP
NATIONAL WEATHER SERVICE ALBANY NY
900 AM EDT WED MAR 29 2017

NOTE: "FAIR" INDICATES FEW OR NO CLOUDS BELOW 12,000 FEET WITH NO
SIGNIFICANT WEATHER AND/OR NO OBSTRUCTIONS TO VISIBILITY.

NYZ032-033-038>043-046>054-057>081-291400-
EAST


CITY           SKY/WX    TMP DP  RH WIND       PRES   REMARKS
ALBANY         LGT RAIN  39  35  86 N6        30.12R
GLENS FALLS    LGT RAIN  38  34  85 N7        30.11R
POUGHKEEPSIE   MOSUNNY   43  35  73 N12       30.07R
NEWBURGH       PTSUNNY   41  39  93 VRB5      30.08R
MONTGOMERY     CLOUDY    44  36  73 NW8       30.07R
WHITE PLAINS   PTSUNNY   43  35  73 N18G29    30.03R
ISLIP          PTSUNNY   45  38  76 N14       30.02R
NEW YORK CITY  CLOUDY    47  38  71 N12       30.06R
CENTRAL PARK   CLOUDY    45  38  76 VRB6      30.08R
$$

NYZ005>009-017-018-044>046-055-056-291400-
CENTRAL


CITY           SKY/WX    TMP DP  RH WIND       PRES   REMARKS
FULTON         SUNNY     38  30  73 N10       30.22R
SYRACUSE       MOSUNNY   38  31  76 NW8       30.21R
ROME           CLOUDY    34  32  92 NW6       30.20R
ELMIRA         CLOUDY    40  32  73 N6        30.19R
BINGHAMTON     SUNNY     36  30  79 N13       30.12R
MONTICELLO     SUNNY     37  30  75 NW15G22   30.09R
$$

NYZ026>034-041>043-291400-
NORTH


CITY           SKY/WX    TMP DP  RH WIND       PRES   REMARKS
WATERTOWN      MOSUNNY   35  31  85 N5        30.22R
FORT DRUM      CLOUDY    32  28  86 NW5       30.19R
OGDENSBURG     NOT AVBL
POTSDAM        NOT AVBL
MASSENA        CLOUDY    37  26  64 W5        30.20R
SARANAC LAKE   CLOUDY    31  28  89 VRB3      30.09R
PLATTSBURGH    CLOUDY    37  28  70 NW6       30.13S
$$

NYZ001>004-010>016-019>021-291400-
WEST


CITY           SKY/WX    TMP DP  RH WIND       PRES   REMARKS
NIAGARA FALLS  SUNNY     41  32  70 E3        30.24R
BUFFALO        MOSUNNY   40  34  79 CALM      30.23R
JAMESTOWN      CLOUDY    34  32  93 N5        30.20R VSB<1/4
WELLSVILLE     CLOUDY    38  32  79 N8        30.19R
DANSVILLE      CLOUDY    38  35  89 NW7       30.23R
ROCHESTER      MOSUNNY   42  31  64 NE7       30.24R
PENN YAN       SUNNY     39  29  67 N8        30.21R


             KEY
       WCI = WIND CHILL INDEX
       VSB = VISIBILITY
       HX  = HEAT INDEX



USA.gov is the U.S. government's official web portal to all federal, state and local government web resources and services.